Location: Paddlesworth
(51.1000°N, 1.1333°E)
Time: 14:06:18
(UTC+00:00)

Cosmos 494 Rocket - Pass Details

Date: 11 May 2021
Orbit: 743 x 770 km, 74.1° (Epoch: 19 June)

Event Time Altitude Azimuth Distance (km) Brightness Sun altitude
Rises 23:10:15 0° 337° (NNW) 3,234 8.7 -20.2°
Reaches altitude 10° 23:12:42 10° 342° (NNW) 2,300 7.7 -20.2°
Maximum altitude 23:17:50 56° 60° (ENE) 896 4.4 -20.4°
Enters shadow 23:20:06 31° 125° (SE) 1,295 4.8 -20.4°
